User: anonymous   Login
Location: Unspecified
(0.0000°N, 0.0000°E)
Time: 23:50:34
(UTC+00:00)
Language:

STARLINK-33807 - Orbit

View from above orbital plane
View from above orbital plane
View from above satellite
View from above satellite

Ground track
Ground track

The orbit is defined by the following mean orbital elements,

1 63518U          26145.28681463 +.00000000 +00000-0 +58315-3 0 00007
2 63518  53.1578 143.6457 0000946  68.1967 291.9139 15.42179789    07
Epoch (UTC): 25 May 2026 06:53:00
Eccentricity: 0.0000946
inclination: 53.1578°
perigee height: 439 km
apogee height: 440 km
right ascension of ascending node: 143.6457°
argument of perigee: 68.1967°
revolutions per day: 15.42179789
mean anomaly at epoch: 291.9139°

The dashed part of the orbit path shows where the satellite is in the earth's shadow,  

DLR